This is the latest recevied weather packets stored in our database for station/object N0THY. If no packets are shown the sender has not sent any weather packets the latest 10 day(s).
| Time | Temp. | Humidity | Pressure | Rain* | Wind** | Luminosity | Snow |
|---|---|---|---|---|---|---|---|
| 1777765639 | 22.22° C | 10% | 1016.7 hPa | 0 mm | - | - | - |
| 1777764736 | 22.22° C | 9% | 1016.6 hPa | 0 mm | - | - | - |
| 1777763833 | 22.78° C | 9% | 1016.8 hPa | 0 mm | - | - | - |
| 1777762930 | 22.78° C | 9% | 1016.8 hPa | 0 mm | - | - | - |
| 1777762027 | 22.78° C | 9% | 1016.9 hPa | 0 mm | - | - | - |
| 1777761124 | 22.78° C | 10% | 1017 hPa | 0 mm | - | - | - |
| 1777760221 | 22.78° C | 10% | 1017.2 hPa | 0 mm | - | - | - |
| 1777759318 | 22.78° C | 10% | 1017.3 hPa | 0 mm | - | - | - |
| 1777758415 | 23.33° C | 10% | 1017.6 hPa | 0 mm | - | - | - |
| 1777757512 | 22.78° C | 11% | 1017.9 hPa | 0 mm | - | - | - |
| 1777756609 | 22.78° C | 10% | 1018 hPa | 0 mm | - | - | - |
| 1777755706 | 23.33° C | 9% | 1018.2 hPa | 0 mm | - | - | - |
| 1777754803 | 22.78° C | 11% | 1018.3 hPa | 0 mm | - | - | - |
| 1777753900 | 22.22° C | 12% | 1018.6 hPa | 0 mm | - | - | - |
| 1777752998 | 22.22° C | 13% | 1018.8 hPa | 0 mm | - | - | - |
| 1777752095 | 21.67° C | 13% | 1019 hPa | 0 mm | - | - | - |
| 1777751192 | 21.11° C | 14% | 1019.2 hPa | 0 mm | - | - | - |
| 1777750289 | 21.11° C | 15% | 1019.4 hPa | 0 mm | - | - | - |
| 1777749386 | 20.56° C | 15% | 1019.7 hPa | 0 mm | - | - | - |
| 1777748483 | 20.56° C | 17% | 1019.9 hPa | 0 mm | - | - | - |
| 1777747580 | 20.56° C | 16% | 1020.1 hPa | 0 mm | - | - | - |
| 1777746677 | 20° C | 18% | 1020.3 hPa | 0 mm | - | - | - |
| 1777745774 | 20.56° C | 16% | 1020.5 hPa | 0 mm | - | - | - |
| 1777744871 | 20.56° C | 20% | 1020.6 hPa | 0 mm | - | - | - |
| 1777743968 | 19.44° C | 22% | 1020.8 hPa | 0 mm | - | - | - |
* Rain since midnight (hover to see other rain measurements)
** Current wind speed in m/s (hover to see current wind gust speed)